• In Russia
  • List of Countries
  • For 7 days
  • Water Temperature
  • Satellite Maps
  • Weather Map
  • Weather Widgets
  • user-avatar
    Login

    Hourly Weather Klagenfurt

    Today, 24 April, Monday

    Time Temperature Precipitation Wind Pressure Humidity
    00:00 +2°C° 0 mm 1 mps 692 mmHg 94%
    01:00 +2°C° 0 mm 1 mps 692 mmHg 91%
    02:00 +2°C° 0 mm 1 mps 692 mmHg 92%
    03:00 0°C° 0 mm 0 mps 691 mmHg 92%
    04:00 0°C° 0 mm 0 mps 691 mmHg 93%
    05:00 +1°C° 0 mm 0 mps 691 mmHg 88%
    06:00 +3°C° 0 mm 0 mps 691 mmHg 83%
    07:00 +4°C° 0 mm 0 mps 692 mmHg 78%
    08:00 +7°C° 0 mm 1 mps 692 mmHg 72%
    09:00 +9°C° 0 mm 1 mps 692 mmHg 66%
    10:00 +11°C° 0 mm 1 mps 692 mmHg 60%
    11:00 +10°C° 0 mm 2 mps 692 mmHg 60%
    12:00 +10°C° 0 mm 2 mps 691 mmHg 60%
    13:00 +12°C° 0 mm 2 mps 691 mmHg 60%
    14:00 +12°C° 0 mm 2 mps 690 mmHg 62%
    15:00 +12°C° 0 mm 2 mps 690 mmHg 65%
    16:00 +10°C° 0 mm 2 mps 690 mmHg 68%
    17:00 +9°C° 0 mm 2 mps 689 mmHg 77%
    18:00 +7°C° 0 mm 2 mps 689 mmHg 86%
    19:00 +7°C° 0 mm 1 mps 688 mmHg 95%
    20:00 +6°C° 0 mm 1 mps 688 mmHg 96%
    21:00 +6°C° 0 mm 1 mps 688 mmHg 96%
    22:00 +5°C° 0 mm 1 mps 688 mmHg 97%
    23:00 +5°C° 0.1 mm 1 mps 688 mmHg 97%

    Tomorrow, 25 April, Tuesday

    Time Temperature Precipitation Wind Pressure Humidity
    00:00 +5°C° 0.1 mm 1 mps 688 mmHg 97%
    01:00 +5°C° 0.1 mm 1 mps 687 mmHg 97%
    02:00 +5°C° 0.1 mm 1 mps 687 mmHg 97%
    03:00 +6°C° 0.1 mm 1 mps 687 mmHg 97%
    04:00 +6°C° 0.1 mm 1 mps 686 mmHg 97%
    05:00 +7°C° 0.1 mm 1 mps 686 mmHg 95%
    06:00 +7°C° 0.1 mm 2 mps 686 mmHg 93%
    07:00 +8°C° 0.1 mm 2 mps 686 mmHg 90%
    08:00 +9°C° 0.1 mm 3 mps 686 mmHg 86%
    09:00 +10°C° 0.1 mm 3 mps 686 mmHg 81%
    10:00 +11°C° 0.1 mm 3 mps 686 mmHg 76%
    11:00 +11°C° 0.1 mm 4 mps 686 mmHg 75%
    12:00 +11°C° 0.1 mm 4 mps 686 mmHg 73%
    13:00 +12°C° 0.1 mm 4 mps 685 mmHg 72%
    14:00 +12°C° 0.2 mm 4 mps 685 mmHg 72%
    15:00 +12°C° 0.2 mm 4 mps 685 mmHg 73%
    16:00 +11°C° 0.2 mm 4 mps 684 mmHg 73%
    17:00 +10°C° 0.1 mm 3 mps 684 mmHg 79%
    18:00 +9°C° 0.1 mm 3 mps 684 mmHg 85%
    19:00 +8°C° 0.1 mm 2 mps 683 mmHg 91%
    20:00 +8°C° 0.5 mm 2 mps 684 mmHg 92%
    21:00 +8°C° 0.5 mm 2 mps 684 mmHg 93%
    22:00 +7°C° 0.5 mm 2 mps 684 mmHg 94%
    23:00 +7°C° 0.6 mm 2 mps 684 mmHg 94%

    Day after tomorrow, 26 April, Wednesday

    Time Temperature Precipitation Wind Pressure Humidity
    00:00 +7°C° 0.6 mm 2 mps 684 mmHg 94%
    01:00 +7°C° 0.6 mm 2 mps 683 mmHg 95%
    02:00 +7°C° 0.2 mm 2 mps 683 mmHg 95%
    03:00 +7°C° 0.2 mm 2 mps 683 mmHg 95%
    04:00 +7°C° 0.2 mm 3 mps 683 mmHg 96%
    05:00 +8°C° 0.5 mm 3 mps 683 mmHg 95%
    06:00 +8°C° 0.5 mm 3 mps 683 mmHg 94%
    07:00 +8°C° 0.5 mm 3 mps 683 mmHg 92%
    08:00 +8°C° 0.8 mm 3 mps 683 mmHg 93%
    09:00 +9°C° 0.8 mm 2 mps 683 mmHg 93%
    10:00 +9°C° 0.8 mm 2 mps 683 mmHg 93%
    11:00 +9°C° 1.7 mm 3 mps 683 mmHg 92%
    12:00 +9°C° 1.7 mm 3 mps 683 mmHg 92%
    13:00 +9°C° 1.7 mm 3 mps 683 mmHg 91%
    14:00 +9°C° 2.3 mm 3 mps 683 mmHg 91%
    15:00 +9°C° 2.3 mm 3 mps 683 mmHg 91%
    16:00 +9°C° 2.3 mm 2 mps 682 mmHg 90%
    17:00 +8°C° 2.7 mm 2 mps 682 mmHg 92%
    18:00 +8°C° 2.7 mm 2 mps 682 mmHg 93%
    19:00 +8°C° 2.7 mm 2 mps 682 mmHg 94%
    20:00 +8°C° 2.9 mm 2 mps 682 mmHg 95%
    21:00 +8°C° 2.9 mm 2 mps 682 mmHg 96%
    22:00 +8°C° 2.9 mm 2 mps 682 mmHg 96%
    23:00 +8°C° 2.1 mm 2 mps 682 mmHg 96%

    27 April, Thursday

    Time Temperature Precipitation Wind Pressure Humidity
    00:00 +8°C° 2.1 mm 2 mps 682 mmHg 96%
    01:00 +8°C° 2.1 mm 2 mps 682 mmHg 96%
    02:00 +7°C° 0.4 mm 2 mps 682 mmHg 96%
    03:00 +7°C° 0.4 mm 2 mps 682 mmHg 96%
    04:00 +7°C° 0.4 mm 1 mps 682 mmHg 96%
    05:00 +8°C° 0.1 mm 1 mps 682 mmHg 95%
    06:00 +8°C° 0.1 mm 2 mps 683 mmHg 93%
    07:00 +8°C° 0.1 mm 2 mps 683 mmHg 92%
    08:00 +9°C° 0.1 mm 2 mps 683 mmHg 86%
    09:00 +10°C° 0.1 mm 2 mps 684 mmHg 81%
    10:00 +12°C° 0.1 mm 2 mps 684 mmHg 76%
    11:00 +12°C° 0.1 mm 3 mps 684 mmHg 69%
    12:00 +12°C° 0.1 mm 3 mps 685 mmHg 62%
    13:00 +13°C° 0.1 mm 3 mps 685 mmHg 55%
    14:00 +12°C° 0.2 mm 3 mps 685 mmHg 61%
    15:00 +11°C° 0.2 mm 3 mps 684 mmHg 67%
    16:00 +10°C° 0.2 mm 2 mps 684 mmHg 74%
    17:00 +9°C° 0.9 mm 2 mps 684 mmHg 81%
    18:00 +8°C° 0.9 mm 1 mps 684 mmHg 89%
    19:00 +7°C° 0.9 mm 1 mps 684 mmHg 96%
    20:00 +7°C° 1.5 mm 1 mps 684 mmHg 96%
    21:00 +6°C° 1.5 mm 1 mps 684 mmHg 96%
    22:00 +5°C° 1.5 mm 1 mps 684 mmHg 97%
    23:00 +5°C° 1.1 mm 1 mps 684 mmHg 96%

    28 April, Friday

    Time Temperature Precipitation Wind Pressure Humidity
    00:00 +5°C° 1.1 mm 1 mps 684 mmHg 96%
    01:00 +4°C° 1.1 mm 1 mps 684 mmHg 96%
    02:00 +4°C° 0.3 mm 1 mps 684 mmHg 96%
    03:00 +3°C° 0.3 mm 1 mps 684 mmHg 96%
    04:00 +3°C° 0.3 mm 1 mps 684 mmHg 95%
    05:00 +3°C° 0.5 mm 1 mps 684 mmHg 94%
    06:00 +4°C° 0.5 mm 1 mps 684 mmHg 93%
    07:00 +4°C° 0.5 mm 1 mps 685 mmHg 92%
    08:00 +5°C° 0.7 mm 1 mps 685 mmHg 91%
    09:00 +5°C° 0.7 mm 1 mps 685 mmHg 89%
    10:00 +6°C° 0.7 mm 1 mps 685 mmHg 87%
    11:00 +6°C° 0.8 mm 1 mps 685 mmHg 87%
    12:00 +6°C° 0.8 mm 1 mps 685 mmHg 87%
    13:00 +6°C° 0.8 mm 1 mps 685 mmHg 87%
    14:00 +6°C° 0.6 mm 1 mps 686 mmHg 87%
    15:00 +6°C° 0.6 mm 1 mps 686 mmHg 87%
    16:00 +6°C° 0.6 mm 1 mps 686 mmHg 87%
    17:00 +5°C° 0.2 mm 1 mps 686 mmHg 89%
    18:00 +4°C° 0.2 mm 1 mps 686 mmHg 90%
    19:00 +4°C° 0.2 mm 1 mps 687 mmHg 92%
    20:00 +3°C° 0 mm 1 mps 687 mmHg 92%
    21:00 +2°C° 0 mm 1 mps 688 mmHg 92%
    22:00 +1°C° 0 mm 1 mps 688 mmHg 92%
    23:00 +1°C° 0 mm 1 mps 688 mmHg 92%

    29 April, Saturday

    Time Temperature Precipitation Wind Pressure Humidity
    00:00 +1°C° 0 mm 1 mps 688 mmHg 92%
    01:00 0°C° 0 mm 1 mps 688 mmHg 92%
    02:00 0°C° 0 mm 1 mps 688 mmHg 91%
    03:00 0°C° 0 mm 1 mps 689 mmHg 91%
    04:00 0°C° 0 mm 1 mps 689 mmHg 90%
    05:00 +1°C° 0.1 mm 1 mps 689 mmHg 88%
    06:00 +1°C° 0.1 mm 1 mps 690 mmHg 86%
    07:00 +2°C° 0.1 mm 1 mps 690 mmHg 84%
    08:00 +3°C° 0.1 mm 1 mps 690 mmHg 79%
    09:00 +5°C° 0.1 mm 1 mps 690 mmHg 73%
    10:00 +6°C° 0.1 mm 1 mps 691 mmHg 68%
    11:00 +7°C° 0 mm 1 mps 691 mmHg 66%
    12:00 +8°C° 0 mm 1 mps 691 mmHg 63%
    13:00 +9°C° 0 mm 1 mps 691 mmHg 61%
    14:00 +9°C° 0 mm 1 mps 691 mmHg 60%
    15:00 +9°C° 0 mm 1 mps 691 mmHg 59%
    16:00 +9°C° 0 mm 1 mps 691 mmHg 58%
    17:00 +6°C° 0 mm 1 mps 690 mmHg 68%
    18:00 +4°C° 0 mm 1 mps 690 mmHg 78%
    19:00 0°C° 0 mm 0 mps 689 mmHg 88%
    20:00 -1°C° 0 mm 0 mps 689 mmHg 89%
    21:00 -2°C° 0 mm 0 mps 690 mmHg 90%
    22:00 -3°C° 0 mm 0 mps 690 mmHg 91%
    23:00 -3°C° 0 mm 0 mps 690 mmHg 91%
    Show more